Tracking 31027 objects as of 19-Jul-2025
HD Live streaming from Space Station
objects crossing your sky now

SL-6 R/B(2)

Track SL-6 R/B(2) now!


NORAD ID: 22241
Int'l Code: 1992-081D
Perigee: 3,225.2 km
Apogee: 36,649.3 km
Inclination: 68.7 °
Period: 707.8 minutes
Semi major axis: 26308 km
RCS: 5.1164 m2 (large)
Launch date: November 25, 1992
Source: Commonwealth of Independent States (former USSR) (CIS)
Launch site: PLESETSK MISSILE AND SPACE COMPLEX (PKMTR)

Note: This is a ROCKET BODY
Your satellite tracking list
THORAD DELTA 1 DEB
Track 1 satellite(s)




NASA's NSSDC Master Catalog

Two Line Element Set (TLE):
1 22241U 92081D   25198.49487482 -.00000798  00000-0  00000-0 0  9997
2 22241  68.7348  32.7230 6352411  26.2735 355.4693  2.03454007242517
Source of the keplerian elements: AFSPC